[[{"header":{"parameterUnit":"m.s-1","parameterCategory":1,"la1":30.2991,"la2":30.254,"lo1":-89.0895,"lo2":-89.0444,"dy":0.0017,"dx":0.0017,"nx":28,"ny":28,"refTime":"2024-09-25T09:00:00:Z","depth":0,"parameterNumber":2,"parameterNumberName":"U-component_of_WINDS"},"data":[0,0,0,0,0,0,0,0,0,0,0,0,0,0,0,0,0,0,0,0,0,0,0,0,0,0,0,0,0,0,0,0,0,0,0,0,0,0,0,0,0,0,0,0,0,0,0,0,0,0,0,0,0,0,0,0,0,0,-1.8206,-1.8207,0,-1.8231,-1.8232,-1.8232,-1.821,-1.8209,-1.8208,-1.8207,-1.8232,-1.8234,-1.8235,0,0,0,0,0,0,0,0,0,0,0,0,0,-1.8137,-1.8138,-1.8206,-1.8207,-1.8207,-1.8231,-1.8232,-1.8232,-1.821,-1.8209,-1.8208,-1.8207,-1.8232,-1.8234,-1.8236,0,0,0,0,0,0,0,0,0,0,0,0,0,-1.8165,-1.8139,-1.8206,-1.8199,-1.8198,-1.8231,-1.8232,-1.8232,-1.821,-1.8209,-1.8207,-1.8206,-1.8231,-1.8234,-1.8236,-1.8277,0,0,-1.8243,-1.8244,0,0,0,0,0,0,0,0,-1.8163,-1.8167,-1.82,-1.8199,-1.8199,-1.8216,-1.8216,-1.8247,-1.821,-1.8206,-1.8207,-1.8205,-1.8228,-1.823,-1.8238,-1.8278,-1.828,-1.8243,-1.8244,-1.8245,-1.8246,0,0,0,0,0,0,0,-1.8161,-1.8166,-1.8216,-1.82,-1.82,-1.8193,-1.8196,-1.8222,-1.8224,-1.8206,-1.8204,-1.8208,-1.8228,-1.8236,-1.8239,-1.828,-1.8243,-1.8245,-1.8246,-1.8247,-1.8352,-1.8354,0,0,0,0,0,0,-1.816,-1.8165,-1.8215,-1.8217,-1.8177,-1.8196,-1.8199,-1.8212,-1.8224,-1.8224,-1.8209,-1.8207,-1.8233,-1.8236,-1.8239,-1.8287,-1.8245,-1.8247,-1.8249,-1.8351,-1.8353,-1.8354,0,0,0,0,0,0,-1.8159,-1.8165,-1.8214,-1.819,-1.8196,-1.8198,-1.8214,-1.8213,-1.8222,-1.8226,-1.8226,-1.8217,-1.8232,-1.8236,-1.8267,-1.8288,-1.8248,-1.8251,-1.8349,-1.8352,-1.8354,-1.8383,0,0,0,0,0,0,-1.8157,-1.8165,-1.8181,-1.8191,-1.8198,-1.8243,-1.8215,-1.8215,-1.8226,-1.8223,-1.8234,-1.8234,-1.8231,-1.8264,-1.827,-1.829,-1.8252,-1.8348,-1.835,-1.8353,-1.8381,-1.8386,-1.8391,0,0,0,0,0,-1.8155,-1.8189,-1.8182,-1.8189,-1.8218,-1.8244,-1.8248,-1.8243,-1.8227,-1.8243,-1.8246,-1.8234,-1.8285,-1.8268,-1.8274,-1.8295,-1.8346,-1.835,-1.8353,-1.8378,-1.8385,-1.8391,0,0,0,0,0,0,-1.8183,-1.8191,-1.8183,-1.8222,-1.8232,-1.824,-1.8261,-1.8251,-1.8267,-1.8263,-1.8257,-1.826,-1.8292,-1.8297,-1.8278,-1.8334,-1.8313,-1.8317,-1.833,-1.8337,-1.8342,-1.834,-1.8254,0,0,0,0,0,-1.8193,-1.8214,-1.822,-1.8253,-1.8259,-1.8259,-1.827,-1.8265,-1.8276,-1.828,-1.8285,-1.8295,-1.8313,-1.8325,-1.8342,-1.8381,-1.8382,-1.8399,-1.8404,-1.8408,-1.8412,-1.8431,-1.8437,-1.8365,-1.8365,-1.8365,0,0,-1.8216,-1.8223,-1.8236,-1.8259,-1.8267,-1.8287,-1.8263,-1.8286,-1.8301,-1.8284,-1.8313,-1.8317,-1.8328,-1.8362,-1.8378,-1.8367,-1.8432,-1.8412,-1.8416,-1.8417,-1.8435,-1.8441,-1.8448,-1.8367,-1.8367,-1.8366,0,0,-1.8267,-1.8275,-1.8302,-1.831,-1.8321,-1.8321,-1.8327,-1.8336,-1.8338,-1.8367,-1.8354,-1.8371,-1.8402,-1.841,-1.8418,-1.8469,-1.8458,-1.8474,-1.8502,-1.852,-1.8526,-1.8531,-1.8547,-1.8553,-1.8478,-1.8478,-1.8479,0,-1.8293,-1.8324,-1.8318,-1.8341,-1.8351,-1.8336,-1.8363,-1.837,-1.8387,-1.8393,-1.8381,-1.8419,-1.8425,-1.846,-1.8472,-1.848,-1.8486,-1.8473,-1.8525,-1.853,-1.8535,-1.855,-1.8557,-1.848,-1.848,-1.848,-1.848,0,-1.8355,-1.8376,-1.8397,-1.8412,-1.8424,-1.8449,-1.8446,-1.8458,-1.8452,-1.8452,-1.8481,-1.8488,-1.8505,-1.8513,-1.8508,-1.8546,-1.8539,-1.8526,-1.8504,-1.8544,-1.8558,-1.8564,-1.8483,-1.8482,-1.8482,-1.8481,0,0,-1.8426,-1.8435,-1.8443,-1.8448,-1.8458,-1.8474,-1.8498,-1.8514,-1.8524,-1.8535,-1.8554,-1.858,-1.8567,-1.8576,-1.8571,-1.8587,-1.8625,-1.8572,-1.8572,-1.858,-1.8666,-1.8674,-1.8682,-1.8617,-1.8619,-1.862,-1.8664,0,-1.8476,-1.8517,-1.851,-1.855,-1.8568,-1.8552,-1.8572,-1.858,-1.858,-1.8595,-1.8595,-1.8613,-1.8596,-1.8601,-1.8616,-1.8617,-1.8641,-1.8614,-1.8634,-1.8634,-1.863,-1.8689,-1.8699,-1.8741,-1.867,-1.8671,-1.8672,0,-1.854,-1.8552,-1.8593,-1.8597,-1.8605,-1.8623,-1.8636,-1.8651,-1.8658,-1.8657,-1.8666,-1.8657,-1.868,-1.8657,-1.8687,-1.8668,-1.8676,-1.8677,-1.8679,-1.868,-1.8655,-1.8691,-1.8755,-1.876,-1.8681,-1.868,-1.8679,0,-1.8585,-1.8612,-1.8639,-1.8644,-1.8651,-1.8664,-1.8667,-1.8673,-1.8682,-1.8694,-1.8699,-1.8713,-1.872,-1.8731,-1.8725,-1.871,-1.8755,-1.8733,-1.8754,-1.8754,-1.8764,-1.8763,-1.8828,-1.8771,-1.877,-1.877,-1.877,0,-1.8641,-1.8666,-1.8659,-1.8676,-1.8702,-1.8694,-1.8721,-1.8722,-1.8728,-1.8743,-1.8731,-1.8746,-1.8739,-1.8753,-1.8749,-1.8773,-1.8777,-1.8775,-1.8774,-1.8776,-1.8776,-1.878,-1.8777,-1.8772,-1.8772,-1.8771,-1.8771,0,-1.8697,-1.8693,-1.8721,-1.8724,-1.8725,-1.8745,-1.8747,-1.8762,-1.876,-1.878,-1.8784,-1.8782,-1.8798,-1.8793,-1.8811,-1.8808,-1.8838,-1.8833,-1.8835,-1.8833,-1.8854,-1.8851,-1.8924,-1.8932,-1.887,-1.887,-1.8871,0,-1.8733,-1.8751,-1.8755,-1.8764,-1.8768,-1.8784,-1.8792,-1.8785,-1.8794,-1.8803,-1.8816,-1.883,-1.8842,-1.8867,-1.8867,-1.8879,-1.8874,-1.8898,-1.8876,-1.8877,-1.8873,-1.8871,-1.8872,-1.8903,-1.8904,-1.8904,-1.8905,0,-1.8795,-1.8792,-1.8805,-1.8816,-1.8826,-1.8835,-1.8843,-1.8851,-1.8844,-1.8855,-1.887,-1.8879,-1.8895,-1.8909,-1.892,-1.8923,-1.8912,-1.8912,-1.8917,-1.8919,-1.8918,-1.8917,-1.8846,-1.891,-1.8909,-1.8909,-1.8909,-1.8909,-1.8841,-1.8856,-1.886,-1.8874,-1.8878,-1.8885,-1.8898,-1.8898,-1.891,-1.8923,-1.8917,-1.8935,-1.894,-1.8953,-1.8957,-1.897,-1.8961,-1.8969,-1.897,-1.8972,-1.8974,-1.8917,-1.8972,-1.8972,-1.8972,-1.8972,-1.8972,0,-1.8902,-1.8903,-1.8916,-1.8926,-1.8936,-1.8925,-1.8932,-1.8941,-1.8956,-1.8962,-1.8972,-1.8989,-1.9001,-1.9001,-1.9013,-1.9023,-1.9018,-1.9026,-1.9025,-1.9025,-1.8982,-1.8976,-1.903,-1.903,-1.903,-1.903,-1.903,-1.903,-1.8934,-1.8958,-1.8954,-1.8979,-1.898,-1.8996,-1.9001,-1.9007,-1.9011,-1.9029,-1.9039,-1.9039,-1.9042,-1.9053,-1.9064,-1.9063,-1.9067,-1.9077,-1.9074,-1.9034,-1.9029,-1.9023,-1.9017,-1.9078,-1.9078,-1.9116,-1.9116,-1.9117]},{"header":{"parameterUnit":"m.s-1","parameterCategory":1,"la1":30.2991,"la2":30.254,"lo1":-89.0895,"lo2":-89.0444,"dy":0.0017,"dx":0.0017,"nx":28,"ny":28,"refTime":"2024-09-25T09:00:00:Z","depth":0,"parameterNumber":3,"parameterNumberName":"V-component_of_WINDS"},"data":[0,0,0,0,0,0,0,0,0,0,0,0,0,0,0,0,0,0,0,0,0,0,0,0,0,0,0,0,0,0,0,0,0,0,0,0,0,0,0,0,0,0,0,0,0,0,0,0,0,0,0,0,0,0,0,0,0,0,-4.5096,-4.5098,0,-4.5256,-4.5258,-4.5259,-4.5231,-4.5228,-4.5225,-4.5223,-4.5382,-4.5389,-4.5396,0,0,0,0,0,0,0,0,0,0,0,0,0,-4.476,-4.4766,-4.5096,-4.5098,-4.51,-4.5256,-4.5258,-4.526,-4.5231,-4.5228,-4.5225,-4.5221,-4.538,-4.5388,-4.5396,0,0,0,0,0,0,0,0,0,0,0,0,0,-4.4911,-4.4768,-4.5095,-4.5105,-4.5107,-4.5255,-4.5258,-4.526,-4.5232,-4.5228,-4.5224,-4.522,-4.5377,-4.5387,-4.5397,-4.5545,0,0,-4.5429,-4.5433,0,0,0,0,0,0,0,0,-4.4903,-4.4923,-4.5101,-4.5104,-4.5107,-4.5219,-4.5198,-4.5356,-4.5233,-4.5185,-4.5223,-4.5218,-4.5331,-4.5345,-4.5384,-4.5553,-4.556,-4.543,-4.5436,-4.544,-4.5443,0,0,0,0,0,0,0,-4.4892,-4.4916,-4.5159,-4.5104,-4.5107,-4.5098,-4.5115,-4.5227,-4.5279,-4.5188,-4.5187,-4.5206,-4.5332,-4.5374,-4.5388,-4.5562,-4.5429,-4.5439,-4.5445,-4.5449,-4.5856,-4.5861,0,0,0,0,0,0,-4.488,-4.4908,-4.5154,-4.5164,-4.4993,-4.5108,-4.5127,-4.5187,-4.5278,-4.5288,-4.521,-4.5204,-4.5359,-4.5376,-4.5393,-4.5571,-4.544,-4.545,-4.5456,-4.5852,-4.5857,-4.5862,0,0,0,0,0,0,-4.4872,-4.4902,-4.5147,-4.5036,-4.5066,-4.5118,-4.5187,-4.5193,-4.5235,-4.5294,-4.5303,-4.5244,-4.5356,-4.5379,-4.5507,-4.5576,-4.5455,-4.5464,-4.5846,-4.5853,-4.586,-4.5928,0,0,0,0,0,0,-4.4863,-4.4899,-4.4958,-4.5037,-4.5072,-4.5261,-4.5191,-4.5199,-4.5254,-4.5248,-4.5329,-4.5338,-4.5354,-4.5492,-4.5517,-4.5588,-4.5472,-4.584,-4.5849,-4.5858,-4.592,-4.5936,-4.595,0,0,0,0,0,-4.4851,-4.497,-4.4961,-4.4991,-4.5147,-4.5265,-4.5285,-4.5303,-4.5259,-4.5317,-4.5354,-4.5335,-4.5564,-4.5505,-4.5534,-4.5608,-4.5836,-4.5847,-4.5857,-4.5913,-4.5933,-4.595,0,0,0,0,0,0,-4.4897,-4.4981,-4.4972,-4.5121,-4.5186,-4.526,-4.5335,-4.5324,-4.5403,-4.5394,-4.5412,-4.543,-4.556,-4.5597,-4.553,-4.5754,-4.5693,-4.571,-4.5726,-4.5746,-4.5761,-4.5749,-4.5481,0,0,0,0,0,-4.4925,-4.5016,-4.5084,-4.5208,-4.5242,-4.5282,-4.5335,-4.5343,-4.5411,-4.5438,-4.5485,-4.555,-4.5636,-4.5693,-4.5776,-4.5924,-4.594,-4.5989,-4.6004,-4.6016,-4.6031,-4.6109,-4.6131,-4.5897,-4.5897,-4.5896,0,0,-4.4983,-4.504,-4.5096,-4.5219,-4.5271,-4.5362,-4.5306,-4.5406,-4.5474,-4.5453,-4.5577,-4.5613,-4.5687,-4.5826,-4.5889,-4.586,-4.6098,-4.603,-4.6039,-4.6047,-4.6122,-4.6144,-4.6164,-4.5904,-4.5903,-4.5901,0,0,-4.5135,-4.5189,-4.5297,-4.535,-4.5429,-4.5455,-4.5481,-4.5556,-4.558,-4.5705,-4.569,-4.5769,-4.5919,-4.5971,-4.6017,-4.6186,-4.617,-4.6212,-4.6292,-4.6369,-4.6387,-4.6403,-4.6462,-4.6483,-4.6226,-4.6226,-4.6226,0,-4.5197,-4.5337,-4.5354,-4.5456,-4.5509,-4.5494,-4.5603,-4.5652,-4.5754,-4.579,-4.5756,-4.5941,-4.599,-4.6139,-4.618,-4.6218,-4.6246,-4.6203,-4.6383,-4.64,-4.6415,-4.6471,-4.6493,-4.623,-4.623,-4.6229,-4.6229,0,-4.5408,-4.5505,-4.5583,-4.5682,-4.5743,-4.5848,-4.5878,-4.5938,-4.594,-4.5968,-4.6094,-4.6152,-4.6245,-4.628,-4.6283,-4.643,-4.6409,-4.6379,-4.6319,-4.6442,-4.6495,-4.6516,-4.6237,-4.6235,-4.6234,-4.6233,0,0,-4.5596,-4.5702,-4.573,-4.5774,-4.5858,-4.5933,-4.6034,-4.6126,-4.6176,-4.6246,-4.633,-4.6455,-4.6427,-4.648,-4.6487,-4.6554,-4.6682,-4.6516,-4.6518,-4.6544,-4.6844,-4.6866,-4.6891,-4.6671,-4.6676,-4.6679,-4.6838,0,-4.5756,-4.5939,-4.5956,-4.6118,-4.6206,-4.6192,-4.628,-4.634,-4.6369,-4.6446,-4.6476,-4.6564,-4.6521,-4.6552,-4.6618,-4.6653,-4.6742,-4.6641,-4.6748,-4.6752,-4.6731,-4.6919,-4.6943,-4.709,-4.6858,-4.6862,-4.6865,0,-4.5968,-4.6044,-4.6216,-4.6286,-4.6323,-4.6403,-4.6487,-4.6561,-4.6627,-4.6643,-4.67,-4.6698,-4.68,-4.6735,-4.6874,-4.6805,-4.6849,-4.6872,-4.6878,-4.6889,-4.6816,-4.6934,-4.7137,-4.7159,-4.6898,-4.6895,-4.6893,0,-4.6086,-4.6231,-4.6353,-4.639,-4.6475,-4.6531,-4.6569,-4.6631,-4.6684,-4.6757,-4.6791,-4.6874,-4.6919,-4.6982,-4.7001,-4.6952,-4.7139,-4.7076,-4.7153,-4.7153,-4.7194,-4.7191,-4.7407,-4.7223,-4.7223,-4.7222,-4.7222,0,-4.6263,-4.6368,-4.6407,-4.6481,-4.6597,-4.6614,-4.6728,-4.6762,-4.6817,-4.6896,-4.6888,-4.6961,-4.6982,-4.7059,-4.7074,-4.7186,-4.7207,-4.722,-4.7223,-4.7221,-4.7219,-4.7251,-4.7241,-4.7228,-4.7227,-4.7226,-4.7225,0,-4.6416,-4.6446,-4.6577,-4.6646,-4.6665,-4.6748,-4.6806,-4.6876,-4.6902,-4.7002,-4.7026,-4.7066,-4.7156,-4.7181,-4.7288,-4.7298,-4.7429,-4.7422,-4.7407,-4.7407,-4.7482,-4.7474,-4.7725,-4.7758,-4.7553,-4.7555,-4.7557,0,-4.6527,-4.6607,-4.6685,-4.6737,-4.6778,-4.6863,-4.6917,-4.6935,-4.6991,-4.7071,-4.7131,-4.7219,-4.7291,-4.7434,-4.7471,-4.7552,-4.7547,-4.7629,-4.7559,-4.7554,-4.7547,-4.7542,-4.7549,-4.7643,-4.7645,-4.7647,-4.7648,0,-4.672,-4.673,-4.6809,-4.6893,-4.6958,-4.7024,-4.7088,-4.7131,-4.7157,-4.722,-4.7312,-4.7368,-4.7476,-4.7563,-4.7645,-4.7681,-4.7668,-4.767,-4.7691,-4.769,-4.7678,-4.7684,-4.7443,-4.7664,-4.7662,-4.7661,-4.766,-4.766,-4.6854,-4.6924,-4.6989,-4.7077,-4.7126,-4.7186,-4.7254,-4.7288,-4.7366,-4.7457,-4.7462,-4.7561,-4.7621,-4.773,-4.777,-4.7845,-4.7821,-4.7853,-4.7861,-4.7868,-4.7874,-4.7666,-4.786,-4.786,-4.7859,-4.7859,-4.7859,0,-4.7046,-4.7086,-4.7167,-4.7256,-4.7324,-4.7307,-4.7376,-4.7433,-4.7521,-4.7579,-4.765,-4.7753,-4.7837,-4.788,-4.7962,-4.8014,-4.801,-4.8035,-4.8031,-4.8039,-4.7892,-4.7865,-4.8037,-4.8037,-4.8037,-4.8037,-4.8036,-4.8036,-4.7153,-4.727,-4.7288,-4.7428,-4.7467,-4.7565,-4.7606,-4.7659,-4.7705,-4.7822,-4.7892,-4.792,-4.7971,-4.8056,-4.8131,-4.8141,-4.8171,-4.8199,-4.8206,-4.8068,-4.805,-4.8032,-4.8007,-4.8206,-4.8206,-4.8346,-4.8348,-4.8349]}]]